Regional Weather Roundup
Issued by NWS

Home | Current Version | Previous Version | Graphics & Text | Print | Product List | Glossary On
Versions: 1 2 3 4 5 6 7 8 9 10 11 12 13 14 15 16 17 18 19 20 21 22 23 24 25 26 27 28 29 30 31 32 33 34 35 36 37 38 39 40 41 42 43 44 45 46 47 48 49 50
000
ASUS43 KOAX 232110
RWRNE

WEATHER ROUNDUP FOR NEBRASKA
NATIONAL WEATHER SERVICE OMAHA NE
300 PM CST THU FEB 23 2017

NOTES: SATELLITE DATA IS BEING USED TO AUGMENT CLOUD COVER ABOVE
       12000 FEET.
       "FAIR" INDICATES FEW OR NO CLOUDS BELOW 12,000 FEET WITH NO
       SIGNIFICANT WEATHER AND/OR OBSTRUCTIONS TO VISIBILITY.

  * THESE STATIONS DO NOT REPORT WEATHER SUCH AS RAIN...SNOW OR FOG.

NEZ001>004-019>022-054>056-232200-
NEBRASKA PANHANDLE

CITY           SKY/WX    TMP DP  RH WIND       PRES   REMARKS
SCOTTSBLUFF    HAZE      23  18  81 N29       29.67F VSB 1/2 WCI   6
ALLIANCE       FOG       22  19  89 N23G30    29.67S VSB 1/4 WCI   6
CHADRON        SNOW      25  21  85 N17       29.79S VSB 1/2 WCI  12
KIMBALL        LGT SNOW  22  21  96 N16       29.62S VSB 1   WCI   9
SIDNEY         LGT SNOW  23  20  88 N18       29.64R VSB 3/4 WCI   9
$$

NEZ057>060-069>072-079>082-232200-
SOUTHWEST NEBRASKA

CITY           SKY/WX    TMP DP  RH WIND       PRES   REMARKS
NORTH PLATTE   LGT SNOW  30  25  81 NE12      29.63S WCI  20
IMPERIAL       FRZ RAIN  28  26  92 NE16      29.59R FOG     WCI  16
LEXINGTON      CLOUDY    31  30  93 NE17      29.61S FOG     WCI  20
MCCOOK         SNOW      31  31 100 NE13G25   29.57S VSB 1/2 WCI  21
OGALLALA       LGT SNOW  28  25  87 NE14      29.63R WCI  17
$$

NEZ005>010-023>029-035>040-094-232200-
NORTH CENTRAL NEBRASKA

CITY           SKY/WX    TMP DP  RH WIND       PRES   REMARKS
VALENTINE      SNOW      26  22  84 NE22G30   29.75F VSB 1/2 WCI  12
AINSWORTH      SNOW      27  26  96 NE23G30   29.72S VSB 1/2 WCI  12
BROKEN BOW     SNOW      30  28  92 NE16G24   29.63S VSB 1/4 WCI  19
O`NEILL        CLOUDY    30  28  94 NE26G35   29.71F FOG     WCI  16
ORD            LGT SNOW  31  26  82 NE14G36   29.63S WCI  21
THEDFORD       LGT SNOW  28  25  89 NE22G33   29.63F WCI  13
$$

NEZ041-046>049-061>064-073>077-083>087-232200-
SOUTH CENTRAL NEBRASKA

CITY           SKY/WX    TMP DP  RH WIND       PRES   REMARKS
GRAND ISLAND   CLOUDY    32  32 100 NE24G31   29.60R WCI  19
AURORA         CLOUDY    34  32  92 NE21G30   29.58S WCI  22
HASTINGS       CLOUDY    35  31  85 NE23G33   29.56F WCI  23
HEBRON         CLOUDY    41  33  73 NE16G24   29.52F
HOLDREGE       LGT SNOW  32  31  96 NE18G26   29.57F WCI  21
KEARNEY *      CLOUDY    32  28  86 NE18G26   29.60S WCI  20
YORK           CLOUDY    36  32  87 NE23G32   29.58S WCI  24
$$

NEZ011>018-030>034-042>045-232200-
NORTHEAST NEBRASKA

CITY           SKY/WX    TMP DP  RH WIND       PRES   REMARKS
NORFOLK        CLOUDY    33  27  78 NE26G36   29.65F WCI  20
ALBION         CLOUDY    34  28  80 NE23G29   29.63F WCI  22
BLAIR          CLOUDY    38  34  84 NE23G32   29.62F WCI  28
FREMONT        CLOUDY    37  33  85 NE15G25   29.63F WCI  28
TEKAMAH        CLOUDY    38  32  79 NE22      29.68F WCI  27
WAYNE          CLOUDY    34  29  83 NE23G30   29.70F WCI  22
$$

NEZ050>053-065>068-078-088>093-232200-
SOUTHEAST NEBRASKA

CITY           SKY/WX    TMP DP  RH WIND       PRES   REMARKS
LINCOLN        CLOUDY    41  34  76 NE22G29   29.59F
OMAHA EPPLEY   CLOUDY    41  34  76 NE21G29   29.61F
BEATRICE       LGT RAIN  42  37  80 NE15G22   29.54S
FALLS CITY     CLOUDY    50  40  68 E16       29.50F
NEBRASKA CITY  CLOUDY    47  34  60 NE20      29.54F
PLATTSMOUTH    CLOUDY    43  33  68 NE16G24   29.58F
$$

NEZ044-045-051>053-067-232200-
OMAHA AREA

CITY           SKY/WX    TMP DP  RH WIND       PRES   REMARKS
OMAHA EPPLEY   CLOUDY    41  34  76 NE21G29   29.61F
BLAIR          CLOUDY    38  34  84 NE23G32   29.62F WCI  28
FREMONT        CLOUDY    37  33  85 NE15G25   29.63F WCI  28
MILLARD        CLOUDY    42  36  79 NE12G18   29.61F
OFFUTT AFB     CLOUDY    43  35  74 NE14G24   29.60F
PLATTSMOUTH    CLOUDY    43  33  68 NE16G24   29.58F
WAHOO          CLOUDY    38  33  81 NE20G28   29.61F WCI  28
$$




USA.gov is the U.S. government's official web portal to all federal, state and local government web resources and services.